Location: Nashville
(36.1660°N, 86.7840°W)
Time: 03:01:33
(UTC-05:00)

Tiros 1 - Pass Details

Date: 05 February 2022
Orbit: 630 x 663 km, 48.4° (Epoch: 29 May)

Event Time Altitude Azimuth Distance (km) Brightness Sun altitude
Rises 19:52:01 0° 282° (WNW) 2,983 11.7 -31.4°
Reaches altitude 10° 19:54:52 10° 299° (WNW) 2,076 10.5 -32.0°
Enters shadow 19:57:19 19° 328° (NNW) 1,548 9.4 -32.4°
